Overview Statistics Trail Chart Weather Telemetry Raw packets
 

This is the latest recevied weather packets stored in our database for station/object W7TRD. If no packets are shown the sender has not sent any weather packets the latest 10 day(s).

<< 32 33 34 35 36 37 38 >>
Time Temp. Humidity Pressure Rain* Wind** Luminosity Snow
1788400817 15.56° C 92% 1008.5 hPa 0 mm - 48 W/m² -
1788400513 15.56° C 92% 1008.8 hPa 0 mm - 48 W/m² -
1788400209 15.56° C 92% 1008.8 hPa 0 mm - 56 W/m² -
1788399908 15.56° C 93% 1008.8 hPa 0 mm - 63 W/m² -
1788399603 15.56° C 92% 1008.7 hPa 0 mm - 31 W/m² -
1788399302 15.56° C 92% 1008.8 hPa 0 mm - 42 W/m² -
1788399002 15.56° C 91% 1008.6 hPa 0 mm - 47 W/m² -
1788398701 16.11° C 91% 1008.8 hPa 0 mm - 40 W/m² -
1788398400 16.11° C 91% 1008.7 hPa 0 mm - 45 W/m² -
1788398095 16.11° C 91% 1008.6 hPa 0 mm - 66 W/m² -
1788397791 16.11° C 90% 1008.5 hPa 0 mm - 104 W/m² -
1788397491 16.11° C 90% 1008.5 hPa 0 mm - 128 W/m² -
1788397189 16.11° C 90% 1008.2 hPa 0 mm - 150 W/m² -
1788396884 16.11° C 91% 1008.5 hPa 0 mm - 98 W/m² -
1788396581 16.11° C 92% 1008.1 hPa 0 mm - 93 W/m² -
1788396281 16.11° C 91% 1008.2 hPa 0 mm - 67 W/m² -
1788395977 16.11° C 90% 1008.2 hPa 0 mm - 99 W/m² -
1788395676 16.67° C 90% 1008.2 hPa 0 mm - 131 W/m² -
1788395372 16.11° C 92% 1008.3 hPa 0 mm - 188 W/m² -
1788395067 16.11° C 93% 1008.2 hPa 0 mm - 184 W/m² -
1788394766 16.11° C 94% 1008 hPa 0 mm - 222 W/m² -
1788394466 15.56° C 95% 1008.1 hPa 0 mm - 211 W/m² -
1788394166 15.56° C 96% 1008.2 hPa 0 mm - 159 W/m² -
1788393861 15.56° C 96% 1008.1 hPa 0 mm - 124 W/m² -
1788393559 15.56° C 96% 1008 hPa 0 mm - 126 W/m² -

* Rain latest hour (hover to see other rain measurements)
** Current wind speed in m/s (hover to see current wind gust speed)